Location: Boursonne
(49.2024°N, 3.0468°E)
Time: 21:02:23
(UTC+00:00)

Cosmos 44 Rocket - Pass Details

Date: 03 March 2021
Orbit: 636 x 754 km, 65.1° (Epoch: 14 April)

Event Time Altitude Azimuth Distance (km) Brightness Sun altitude
Rises 18:19:05 0° 320° (NW) 3,209 7.4 -8.1°
Reaches altitude 10° 18:21:29 10° 319° (NW) 2,285 6.6 -8.5°
Maximum altitude 18:26:44 77° 235° (SW) 777 3.7 -9.4°
Drops below altitude 10° 18:31:56 10° 149° (SSE) 2,259 5.6 -10.2°
Sets 18:34:17 0° 148° (SSE) 3,169 6.4 -10.6°
